Time,TemperatureF,DewpointF,PressureIn,WindDirection,WindDirectionDegrees,WindSpeedMPH,WindSpeedGustMPH,Humidity,HourlyPrecipIn,Conditions,Clouds,dailyrainin,SoftwareType,DateUTC
2013-01-28 00:21:00,25.3,22.0,29.92,South,173,0.0,-999.0,86,-99.99,,,0.00,weatherlink.com 1.10,2013-01-28 07:21:00,
2013-01-28 00:31:00,24.7,21.0,29.92,South,173,0.0,-999.0,86,-99.99,,,0.00,weatherlink.com 1.10,2013-01-28 07:31:00,
2013-01-28 00:44:00,24.1,21.0,29.91,South,173,0.0,-999.0,87,-99.99,,,0.00,weatherlink.com 1.10,2013-01-28 07:44:00,
2013-01-28 00:58:00,23.4,20.0,29.90,South,173,0.0,-999.0,88,-99.99,,,0.00,weatherlink.com 1.10,2013-01-28 07:58:00,
2013-01-28 01:18:00,23.4,21.0,29.91,South,173,0.0,-999.0,90,-99.99,,,0.00,weatherlink.com 1.10,2013-01-28 08:18:00,
2013-01-28 01:29:00,23.5,21.0,29.91,South,173,0.0,-999.0,90,-99.99,,,0.00,weatherlink.com 1.10,2013-01-28 08:29:00,
2013-01-28 01:45:00,23.7,22.0,29.91,South,173,0.0,-999.0,91,-99.99,,,0.00,weatherlink.com 1.10,2013-01-28 08:45:00,
2013-01-28 01:59:00,23.9,22.0,29.90,ENE,78,0.0,-999.0,92,-99.99,,,0.00,weatherlink.com 1.10,2013-01-28 08:59:00,
2013-01-28 02:15:00,23.3,21.0,29.90,ENE,72,0.0,-999.0,90,-99.99,,,0.00,weatherlink.com 1.10,2013-01-28 09:15:00,
2013-01-28 02:28:00,22.8,20.0,29.89,ENE,71,1.0,-999.0,90,-99.99,,,0.00,weatherlink.com 1.10,2013-01-28 09:28:00,
2013-01-28 02:43:00,22.5,20.0,29.89,ENE,71,0.0,-999.0,91,-99.99,,,0.00,weatherlink.com 1.10,2013-01-28 09:43:00,
2013-01-28 02:59:00,22.4,21.0,29.88,ENE,71,0.0,-999.0,92,-99.99,,,0.00,weatherlink.com 1.10,2013-01-28 09:59:00,
2013-01-28 03:16:00,22.3,20.0,29.89,ENE,71,0.0,-999.0,92,-99.99,,,0.00,weatherlink.com 1.10,2013-01-28 10:16:00,
2013-01-28 03:31:00,22.3,20.0,29.88,ENE,71,0.0,-999.0,92,-99.99,,,0.00,weatherlink.com 1.10,2013-01-28 10:31:00,
2013-01-28 03:45:00,22.2,20.0,29.88,ENE,71,0.0,-999.0,92,-99.99,,,0.00,weatherlink.com 1.10,2013-01-28 10:45:00,
2013-01-28 04:01:00,22.2,20.0,29.87,ENE,71,0.0,-999.0,92,-99.99,,,0.00,weatherlink.com 1.10,2013-01-28 11:01:00,
2013-01-28 04:13:00,22.2,21.0,29.86,ENE,71,0.0,-999.0,93,-99.99,,,0.00,weatherlink.com 1.10,2013-01-28 11:13:00,
2013-01-28 04:34:00,22.2,21.0,29.86,ENE,71,0.0,-999.0,93,-99.99,,,0.00,weatherlink.com 1.10,2013-01-28 11:34:00,
2013-01-28 04:46:00,22.3,21.0,29.85,ENE,71,0.0,-999.0,93,-99.99,,,0.00,weatherlink.com 1.10,2013-01-28 11:46:00,
2013-01-28 04:58:00,22.3,21.0,29.84,ENE,71,0.0,-999.0,93,-99.99,,,0.00,weatherlink.com 1.10,2013-01-28 11:58:00,
2013-01-28 05:14:00,22.3,21.0,29.84,ENE,71,0.0,-999.0,93,-99.99,,,0.00,weatherlink.com 1.10,2013-01-28 12:14:00,
2013-01-28 05:28:00,22.2,21.0,29.84,ENE,71,0.0,-999.0,93,-99.99,,,0.00,weatherlink.com 1.10,2013-01-28 12:28:00,
2013-01-28 05:44:00,22.1,20.0,29.84,ENE,71,0.0,-999.0,93,-99.99,,,0.00,weatherlink.com 1.10,2013-01-28 12:44:00,
2013-01-28 06:13:00,22.0,20.0,29.83,ENE,71,0.0,-999.0,93,-99.99,,,0.00,weatherlink.com 1.10,2013-01-28 13:13:00,
2013-01-28 06:31:00,21.9,20.0,29.84,ENE,71,0.0,-999.0,93,-99.99,,,0.00,weatherlink.com 1.10,2013-01-28 13:31:00,
2013-01-28 06:49:00,21.8,20.0,29.84,ENE,71,0.0,-999.0,93,-99.99,,,0.00,weatherlink.com 1.10,2013-01-28 13:49:00,
2013-01-28 06:59:00,21.8,20.0,29.84,ENE,71,0.0,-999.0,93,-99.99,,,0.00,weatherlink.com 1.10,2013-01-28 13:59:00,
2013-01-28 07:13:00,21.8,20.0,29.84,ENE,71,0.0,-999.0,93,-99.99,,,0.00,weatherlink.com 1.10,2013-01-28 14:13:00,
2013-01-28 07:28:00,21.8,20.0,29.84,ENE,71,0.0,-999.0,93,-99.99,,,0.00,weatherlink.com 1.10,2013-01-28 14:28:00,
2013-01-28 07:46:00,21.7,20.0,29.83,ENE,71,0.0,-999.0,93,-99.99,,,0.00,weatherlink.com 1.10,2013-01-28 14:46:00,
2013-01-28 08:01:00,21.7,20.0,29.83,ENE,71,0.0,-999.0,93,-99.99,,,0.00,weatherlink.com 1.10,2013-01-28 15:01:00,
2013-01-28 08:15:00,21.8,20.0,29.82,ENE,71,0.0,-999.0,93,-99.99,,,0.00,weatherlink.com 1.10,2013-01-28 15:15:00,
2013-01-28 08:29:00,22.1,20.0,29.83,ENE,71,0.0,-999.0,93,-99.99,,,0.00,weatherlink.com 1.10,2013-01-28 15:29:00,
2013-01-28 08:53:00,22.6,21.0,29.82,ENE,71,0.0,-999.0,93,-99.99,,,0.00,weatherlink.com 1.10,2013-01-28 15:53:00,
2013-01-28 08:58:00,22.8,21.0,29.82,ENE,71,0.0,-999.0,93,-99.99,,,0.00,weatherlink.com 1.10,2013-01-28 15:58:00,
2013-01-28 09:18:00,23.0,21.0,29.83,ENE,71,0.0,-999.0,92,-99.99,,,0.00,weatherlink.com 1.10,2013-01-28 16:18:00,
2013-01-28 09:29:00,23.2,21.0,29.83,ENE,71,0.0,-999.0,92,-99.99,,,0.00,weatherlink.com 1.10,2013-01-28 16:29:00,
2013-01-28 09:45:00,24.0,22.0,29.83,ENE,71,0.0,-999.0,93,-99.99,,,0.00,weatherlink.com 1.10,2013-01-28 16:45:00,
2013-01-28 10:01:00,25.3,23.0,29.83,ENE,71,0.0,-999.0,90,-99.99,,,0.00,weatherlink.com 1.10,2013-01-28 17:01:00,
2013-01-28 10:16:00,26.1,23.0,29.82,ENE,71,0.0,-999.0,88,-99.99,,,0.00,weatherlink.com 1.10,2013-01-28 17:16:00,
2013-01-28 10:31:00,27.3,24.0,29.82,ENE,71,0.0,-999.0,87,-99.99,,,0.00,weatherlink.com 1.10,2013-01-28 17:31:00,
2013-01-28 10:51:00,28.9,24.0,29.81,East,88,0.0,-999.0,82,-99.99,,,0.00,weatherlink.com 1.10,2013-01-28 17:51:00,
2013-01-28 10:59:00,29.3,23.0,29.81,ESE,123,0.0,-999.0,77,-99.99,,,0.00,weatherlink.com 1.10,2013-01-28 17:59:00,
2013-01-28 11:15:00,29.5,23.0,29.80,SE,135,2.0,-999.0,77,-99.99,,,0.01,weatherlink.com 1.10,2013-01-28 18:15:00,
2013-01-28 11:28:00,29.9,22.0,29.81,SE,134,0.0,-999.0,73,-99.99,,,0.01,weatherlink.com 1.10,2013-01-28 18:28:00,
2013-01-28 11:44:00,29.5,22.0,29.80,SSW,192,0.0,-999.0,73,-99.99,,,0.01,weatherlink.com 1.10,2013-01-28 18:44:00,
2013-01-28 11:58:00,29.0,23.0,29.80,SSW,193,0.0,-999.0,78,-99.99,,,0.01,weatherlink.com 1.10,2013-01-28 18:58:00,
2013-01-28 12:33:00,27.9,23.0,29.78,SSW,193,0.0,-999.0,80,-99.99,,,0.02,weatherlink.com 1.10,2013-01-28 19:33:00,
2013-01-28 12:43:00,28.1,23.0,29.79,SSW,192,0.0,-999.0,81,-99.99,,,0.02,weatherlink.com 1.10,2013-01-28 19:43:00,
2013-01-28 13:01:00,28.1,23.0,29.78,West,268,0.0,-999.0,82,-99.99,,,0.03,weatherlink.com 1.10,2013-01-28 20:01:00,
2013-01-28 13:14:00,28.0,22.0,29.79,SE,130,3.0,-999.0,79,-99.99,,,0.03,weatherlink.com 1.10,2013-01-28 20:14:00,
2013-01-28 13:36:00,26.6,22.0,29.79,NE,53,0.0,-999.0,84,-99.99,,,0.04,weatherlink.com 1.10,2013-01-28 20:36:00,
2013-01-28 13:46:00,26.0,22.0,29.79,NE,54,0.0,-999.0,86,-99.99,,,0.04,weatherlink.com 1.10,2013-01-28 20:46:00,
2013-01-28 14:03:00,25.9,22.0,29.79,North,11,0.0,-999.0,86,-99.99,,,0.05,weatherlink.com 1.10,2013-01-28 21:03:00,
2013-01-28 14:15:00,26.0,22.0,29.79,North,5,0.0,-999.0,85,-99.99,,,0.05,weatherlink.com 1.10,2013-01-28 21:15:00,
2013-01-28 14:31:00,26.4,21.0,29.80,North,5,0.0,-999.0,79,-99.99,,,0.05,weatherlink.com 1.10,2013-01-28 21:31:00,
2013-01-28 14:43:00,26.0,20.0,29.80,North,360,0.0,-999.0,77,-99.99,,,0.05,weatherlink.com 1.10,2013-01-28 21:43:00,
2013-01-28 15:01:00,25.2,20.0,29.80,North,355,0.0,-999.0,82,-99.99,,,0.05,weatherlink.com 1.10,2013-01-28 22:01:00,
2013-01-28 15:13:00,24.1,19.0,29.81,North,355,0.0,-999.0,82,-99.99,,,0.06,weatherlink.com 1.10,2013-01-28 22:13:00,
2013-01-28 15:29:00,24.5,20.0,29.81,North,355,0.0,-999.0,83,-99.99,,,0.06,weatherlink.com 1.10,2013-01-28 22:29:00,
2013-01-28 15:45:00,24.5,20.0,29.81,North,355,0.0,-999.0,82,-99.99,,,0.06,weatherlink.com 1.10,2013-01-28 22:45:00,
2013-01-28 16:06:00,24.5,20.0,29.80,North,355,0.0,-999.0,82,-99.99,,,0.06,weatherlink.com 1.10,2013-01-28 23:06:00,
2013-01-28 16:15:00,24.3,20.0,29.80,North,355,0.0,-999.0,82,-99.99,,,0.06,weatherlink.com 1.10,2013-01-28 23:15:00,
2013-01-28 16:35:00,23.7,19.0,29.79,North,355,0.0,-999.0,83,-99.99,,,0.06,weatherlink.com 1.10,2013-01-28 23:35:00,
2013-01-28 16:43:00,23.5,19.0,29.80,North,355,0.0,-999.0,84,-99.99,,,0.06,weatherlink.com 1.10,2013-01-28 23:43:00,
2013-01-28 17:01:00,22.9,19.0,29.80,North,355,0.0,-999.0,85,-99.99,,,0.06,weatherlink.com 1.10,2013-01-29 00:01:00,
2013-01-28 17:13:00,22.6,19.0,29.80,North,355,0.0,-999.0,85,-99.99,,,0.06,weatherlink.com 1.10,2013-01-29 00:13:00,
2013-01-28 17:33:00,22.2,19.0,29.80,North,355,0.0,-999.0,86,-99.99,,,0.06,weatherlink.com 1.10,2013-01-29 00:33:00,
2013-01-28 17:43:00,21.9,19.0,29.80,North,355,0.0,-999.0,88,-99.99,,,0.06,weatherlink.com 1.10,2013-01-29 00:43:00,
2013-01-28 17:59:00,21.4,18.0,29.80,NNW,346,0.0,-999.0,87,-99.99,,,0.06,weatherlink.com 1.10,2013-01-29 00:59:00,
2013-01-28 18:31:00,20.2,17.0,29.81,NNW,346,0.0,-999.0,86,-99.99,,,0.06,weatherlink.com 1.10,2013-01-29 01:31:00,
2013-01-28 18:44:00,19.9,17.0,29.81,NNW,346,0.0,-999.0,87,-99.99,,,0.06,weatherlink.com 1.10,2013-01-29 01:44:00,
2013-01-28 18:58:00,19.5,16.0,29.81,NNW,346,0.0,-999.0,86,-99.99,,,0.06,weatherlink.com 1.10,2013-01-29 01:58:00,
2013-01-28 19:20:00,18.2,14.0,29.80,NNW,346,0.0,-999.0,84,-99.99,,,0.06,weatherlink.com 1.10,2013-01-29 02:20:00,
2013-01-28 19:30:00,17.1,13.0,29.80,NNW,346,0.0,-999.0,83,-99.99,,,0.06,weatherlink.com 1.10,2013-01-29 02:30:00,
2013-01-28 19:44:00,15.8,12.0,29.80,NNW,346,0.0,-999.0,85,-99.99,,,0.06,weatherlink.com 1.10,2013-01-29 02:44:00,
2013-01-28 20:00:00,14.5,11.0,29.79,NNW,346,0.0,-999.0,86,-99.99,,,0.06,weatherlink.com 1.10,2013-01-29 03:00:00,
2013-01-28 20:15:00,13.3,10.0,29.79,NNW,346,0.0,-999.0,87,-99.99,,,0.06,weatherlink.com 1.10,2013-01-29 03:15:00,
2013-01-28 20:30:00,12.6,10.0,29.79,NNW,346,0.0,-999.0,87,-99.99,,,0.06,weatherlink.com 1.10,2013-01-29 03:30:00,
2013-01-28 20:53:00,11.5,8.0,29.79,NNW,346,0.0,-999.0,87,-99.99,,,0.06,weatherlink.com 1.10,2013-01-29 03:53:00,
2013-01-28 21:13:00,10.6,8.0,29.79,NNW,346,0.0,-999.0,88,-99.99,,,0.06,weatherlink.com 1.10,2013-01-29 04:13:00,
2013-01-28 21:28:00,10.4,8.0,29.80,NNW,346,0.0,-999.0,89,-99.99,,,0.06,weatherlink.com 1.10,2013-01-29 04:28:00,
2013-01-28 21:45:00,10.7,8.0,29.80,NNW,346,0.0,-999.0,89,-99.99,,,0.06,weatherlink.com 1.10,2013-01-29 04:45:00,
2013-01-28 21:59:00,10.8,8.0,29.80,NNW,346,0.0,-999.0,89,-99.99,,,0.06,weatherlink.com 1.10,2013-01-29 04:59:00,
2013-01-28 22:15:00,10.9,9.0,29.80,NNW,346,0.0,-999.0,90,-99.99,,,0.06,weatherlink.com 1.10,2013-01-29 05:15:00,
2013-01-28 22:29:00,11.1,9.0,29.80,NNW,346,0.0,-999.0,90,-99.99,,,0.06,weatherlink.com 1.10,2013-01-29 05:29:00,
2013-01-28 22:45:00,11.3,9.0,29.79,NNW,346,0.0,-999.0,90,-99.99,,,0.06,weatherlink.com 1.10,2013-01-29 05:45:00,
2013-01-28 22:58:00,11.4,9.0,29.80,NNW,346,0.0,-999.0,90,-99.99,,,0.06,weatherlink.com 1.10,2013-01-29 05:58:00,
2013-01-28 23:14:00,11.6,9.0,29.79,NNW,346,0.0,-999.0,90,-99.99,,,0.06,weatherlink.com 1.10,2013-01-29 06:14:00,
2013-01-28 23:28:00,11.8,10.0,29.79,NNW,346,0.0,-999.0,90,-99.99,,,0.06,weatherlink.com 1.10,2013-01-29 06:28:00,
2013-01-28 23:44:00,12.1,10.0,29.79,NNW,346,0.0,-999.0,90,-99.99,,,0.06,weatherlink.com 1.10,2013-01-29 06:44:00,